Creek Data

    Home     View Charts     View Raw Data     Messages

ID Distance Battery Voltage Battery Current Internal Temp Internal Humidity External Temp Solar Input rssi snr Time Stamp Record
64218 14.8 3.67 0 46 50 46 4.5 -82 7 01/23/2026 04:45 PM 46973
64217 14.8 3.68 0 47 50 46 4.6 -82 7 01/23/2026 04:30 PM 46972
64216 14.8 3.89 0 47 50 46 4.5 -83 8 01/23/2026 04:15 PM 46971
64215 14.8 3.94 10 48 49 47 4.5 -83 8 01/23/2026 04:00 PM 46970
64214 14.8 4.01 9 48 49 47 4.5 -84 7 01/23/2026 03:45 PM 46969
64213 14.8 3.88 18 48 49 46 4.5 -84 7 01/23/2026 03:30 PM 46968
64212 14.8 3.88 20 48 49 46 4.5 -83 8 01/23/2026 03:15 PM 46967
64211 14.8 3.78 0 48 49 46 5.1 -83 8 01/23/2026 03:00 PM 46966
64210 14.8 3.81 0 48 49 46 5.1 -82 9 01/23/2026 02:45 PM 46965
64209 14.8 3.79 0 48 49 46 5.1 -82 8 01/23/2026 02:30 PM 46964
64208 14.8 3.79 0 48 49 46 5.1 -82 7 01/23/2026 02:15 PM 46963
64207 14.8 3.96 0 48 49 45 5.1 -81 7 01/23/2026 02:00 PM 46962
64206 14.8 3.81 0 48 49 46 5.1 -81 8 01/23/2026 01:45 PM 46961
64205 14.8 3.79 0 48 49 45 5.1 -82 7 01/23/2026 01:30 PM 46960
64204 14.8 3.79 0 48 49 46 5.1 -81 7 01/23/2026 01:15 PM 46959
64203 14.8 3.91 0 49 48 46 5.1 -81 6 01/23/2026 12:45 PM 46957
64202 14.8 3.78 0 49 48 46 5.1 -80 6 01/23/2026 12:30 PM 46956
64201 14.8 3.85 0 48 48 46 5.1 -80 5 01/23/2026 12:15 PM 46955
64200 14.8 3.77 0 48 48 46 5.1 -80 5 01/23/2026 12:00 PM 46954
64199 14.8 3.77 0 48 48 46 5.1 -79 7 01/23/2026 11:45 AM 46953
64198 14.8 3.77 0 47 48 45 5.1 -79 7 01/23/2026 11:30 AM 46952
64197 14.8 3.79 0 47 48 44 5.1 -80 5 01/23/2026 11:15 AM 46951
64196 14.8 3.79 0 47 48 44 5.1 -79 8 01/23/2026 11:00 AM 46950
64195 14.8 3.79 0 46 48 44 5.1 -80 6 01/23/2026 10:45 AM 46949
64194 14.8 3.80 0 46 48 44 5.1 -79 8 01/23/2026 10:30 AM 46948